Weather in Gera

Germany     50˚52′52″N   12˚05′09″E
temp.,
°C
wind,
m/s
gust,
m/s
humid.,
%
clouds,
%
prec.,
mm/h
press.,
hPa
HPBL,
m
1 december, tue
tue101:00+1˚ssw6126867 0.1 1018441
04:00+1˚ssw71182100 0.4 1016395
07:00+1˚ssw71187100 0.8 1016309
10:00+2˚ssw5981100 0.1 1017288
13:00+4˚ssw3780100 0.1 1017415
16:00+3˚s2385100 0.0 101893
19:00+1˚s238799 0.0 102048
22:00s128983 0.0 102121
2 december, wed
wed201:00sse118952 0.0 102222
04:00−1˚nne12923 0.0 102121
07:00−2˚ene12911 0.0 102122
10:00nne11770 0.0 1020142
13:00+2˚ene12673 0.0 1018427
16:00−1˚e11821 0.0 101722
19:00−3˚sw35848 0.0 1016115
22:00−3˚ssw278023 0.0 1015181
3 december, thu
thu301:00−3˚s368048 0.0 1014136
04:00−3˚ssw238136 0.0 101267
07:00−3˚sw368566 0.0 1010171
10:00−1˚ssw467499 0.0 1009344
13:00+1˚ssw4666100 0.0 1006710
16:00−1˚ssw3877100 0.0 1004292
19:00−2˚s498091 0.0 1003255
22:00−2˚s4108598 0.0 1002277
4 december, fri
fri401:00−3˚s498482 0.0 1000226
04:00−3˚sse3985100 0.0 997226
07:00−3˚sse238969 0.0 99669
10:00−1˚sse247199 0.0 994185
13:00+2˚ese2262100 0.0 993205
16:00−1˚e1174100 0.0 99121
19:00−2˚sse118484 0.0 99121
22:00−1˚ne128968 0.0 99121
5 december, sat
sat501:00−2˚ne239583 0.0 99037
04:00−2˚wnw1194100 0.0 98921
07:00−1˚sw119088 0.0 98921
10:00+2˚ssw388346 0.0 992310
13:00+3˚ssw367273 0.0 993495
16:00+1˚ssw3586100 0.0 995128
19:00wsw1291100 0.0 99622
22:00nnw2597100 0.3 996205